Time,TemperatureF,DewpointF,PressureIn,WindDirection,WindDirectionDegrees,WindSpeedMPH,WindSpeedGustMPH,Humidity,HourlyPrecipIn,Conditions,Clouds,dailyrainin,SoftwareType,DateUTC
2013-10-04 00:03:00,48.1,46.5,28.06,East,92,0.0,0.0,94,0.03,,---,0.00,VWS V14.01,2013-10-04 05:03:00,
2013-10-04 00:07:00,48.0,46.6,28.06,East,92,0.0,0.0,95,0.04,,---,0.01,VWS V14.01,2013-10-04 05:07:00,
2013-10-04 00:11:00,48.0,46.6,28.06,East,92,0.0,0.0,95,0.05,,---,0.02,VWS V14.01,2013-10-04 05:11:00,
2013-10-04 00:16:00,47.8,46.4,28.06,East,92,0.0,0.0,95,0.04,,---,0.02,VWS V14.01,2013-10-04 05:16:00,
2013-10-04 00:19:00,47.8,46.4,28.06,East,92,0.0,0.0,95,0.04,,---,0.02,VWS V14.01,2013-10-04 05:19:00,
2013-10-04 00:20:00,47.8,46.4,28.06,East,92,0.0,0.0,95,0.05,,---,0.03,VWS V14.01,2013-10-04 05:20:00,
2013-10-04 00:25:00,47.7,46.3,28.06,East,92,0.0,1.0,95,0.05,,---,0.03,VWS V14.01,2013-10-04 05:25:00,
2013-10-04 00:27:00,47.7,46.3,28.06,East,92,0.0,0.0,95,0.05,,---,0.03,VWS V14.01,2013-10-04 05:27:00,
2013-10-04 00:32:00,47.7,46.3,28.06,East,92,0.0,0.0,95,0.05,,---,0.03,VWS V14.01,2013-10-04 05:32:00,
2013-10-04 00:37:00,47.7,46.3,28.06,East,92,0.0,0.0,95,0.05,,---,0.03,VWS V14.01,2013-10-04 05:37:00,
2013-10-04 00:42:00,47.7,46.3,28.06,East,92,0.0,0.0,95,0.04,,---,0.03,VWS V14.01,2013-10-04 05:42:00,
2013-10-04 00:47:00,47.6,46.2,28.07,East,92,0.0,0.0,95,0.04,,---,0.03,VWS V14.01,2013-10-04 05:47:00,
2013-10-04 00:52:00,47.6,46.2,28.07,East,92,0.0,0.0,95,0.05,,---,0.04,VWS V14.01,2013-10-04 05:52:00,
2013-10-04 00:57:00,47.6,46.2,28.07,East,92,0.0,0.0,95,0.04,,---,0.04,VWS V14.01,2013-10-04 05:57:00,
2013-10-04 01:02:00,47.6,46.2,28.07,East,92,0.0,0.0,95,0.04,,---,0.04,VWS V14.01,2013-10-04 06:02:00,
2013-10-04 01:08:00,47.6,46.2,28.07,East,92,0.0,0.0,95,0.03,,---,0.04,VWS V14.01,2013-10-04 06:08:00,
2013-10-04 01:13:00,47.5,46.4,28.07,East,92,0.0,0.0,96,0.02,,---,0.04,VWS V14.01,2013-10-04 06:13:00,
2013-10-04 01:18:00,47.5,46.4,28.07,East,92,0.0,0.0,96,0.02,,---,0.04,VWS V14.01,2013-10-04 06:18:00,
2013-10-04 01:23:00,47.5,46.4,28.07,East,92,0.0,0.0,96,0.01,,---,0.04,VWS V14.01,2013-10-04 06:23:00,
2013-10-04 01:29:00,47.5,46.4,28.07,East,92,0.0,0.0,96,0.01,,---,0.04,VWS V14.01,2013-10-04 06:29:00,
2013-10-04 01:34:00,47.5,46.4,28.07,East,92,0.0,0.0,96,0.01,,---,0.04,VWS V14.01,2013-10-04 06:34:00,
2013-10-04 01:39:00,47.5,46.4,28.07,East,92,0.0,0.0,96,0.01,,---,0.04,VWS V14.01,2013-10-04 06:39:00,
2013-10-04 01:44:00,47.5,46.4,28.07,East,92,0.0,0.0,96,0.01,,---,0.04,VWS V14.01,2013-10-04 06:44:00,
2013-10-04 01:49:00,47.5,46.4,28.06,East,92,1.0,1.0,96,0.01,,---,0.04,VWS V14.01,2013-10-04 06:49:00,
2013-10-04 01:55:00,47.4,46.3,28.06,East,92,0.0,0.0,96,0.00,,---,0.04,VWS V14.01,2013-10-04 06:55:00,
2013-10-04 02:00:00,47.4,46.3,28.06,East,92,0.0,0.0,96,0.00,,---,0.04,VWS V14.01,2013-10-04 07:00:00,
2013-10-04 02:05:00,47.4,46.3,28.06,East,92,0.0,0.0,96,0.00,,---,0.04,VWS V14.01,2013-10-04 07:05:00,
2013-10-04 02:10:00,47.4,46.3,28.06,East,93,2.0,2.0,96,0.00,,---,0.04,VWS V14.01,2013-10-04 07:10:00,
2013-10-04 02:15:00,47.4,46.3,28.06,East,93,0.0,0.0,96,0.00,,---,0.04,VWS V14.01,2013-10-04 07:15:00,
2013-10-04 02:21:00,47.3,46.2,28.07,East,93,0.0,0.0,96,0.00,,---,0.04,VWS V14.01,2013-10-04 07:21:00,
2013-10-04 02:26:00,47.2,46.1,28.07,East,93,0.0,0.0,96,0.00,,---,0.04,VWS V14.01,2013-10-04 07:26:00,
2013-10-04 02:31:00,47.2,46.1,28.07,East,93,0.0,0.0,96,0.00,,---,0.04,VWS V14.01,2013-10-04 07:31:00,
2013-10-04 02:36:00,47.2,46.1,28.07,East,93,0.0,0.0,96,0.00,,---,0.04,VWS V14.01,2013-10-04 07:36:00,
2013-10-04 02:41:00,47.1,46.0,28.07,East,93,0.0,1.0,96,0.00,,---,0.04,VWS V14.01,2013-10-04 07:41:00,
2013-10-04 02:46:00,47.1,46.0,28.07,East,93,0.0,0.0,96,0.00,,---,0.04,VWS V14.01,2013-10-04 07:46:00,
2013-10-04 02:51:00,47.2,46.1,28.06,East,93,1.0,1.0,96,0.00,,---,0.04,VWS V14.01,2013-10-04 07:51:00,
2013-10-04 02:56:00,47.2,46.1,28.06,East,92,0.0,0.0,96,0.00,,---,0.04,VWS V14.01,2013-10-04 07:56:00,
2013-10-04 03:02:00,47.3,46.2,28.07,East,93,0.0,0.0,96,0.00,,---,0.04,VWS V14.01,2013-10-04 08:02:00,
2013-10-04 03:07:00,47.4,46.3,28.07,East,92,0.0,0.0,96,0.00,,---,0.04,VWS V14.01,2013-10-04 08:07:00,
2013-10-04 03:12:00,47.4,46.3,28.07,East,92,0.0,0.0,96,0.00,,---,0.04,VWS V14.01,2013-10-04 08:12:00,
2013-10-04 03:17:00,47.5,46.4,28.07,ENE,72,0.0,3.0,96,0.00,,---,0.04,VWS V14.01,2013-10-04 08:17:00,
2013-10-04 03:22:00,47.6,46.5,28.07,ENE,76,0.0,2.0,96,0.00,,---,0.04,VWS V14.01,2013-10-04 08:22:00,
2013-10-04 03:27:00,47.6,46.5,28.07,ENE,78,0.0,0.0,96,0.00,,---,0.04,VWS V14.01,2013-10-04 08:27:00,
2013-10-04 03:32:00,47.7,46.6,28.08,East,83,0.0,5.0,96,0.00,,---,0.04,VWS V14.01,2013-10-04 08:32:00,
2013-10-04 03:38:00,47.7,46.6,28.08,East,83,0.0,1.0,96,0.00,,---,0.04,VWS V14.01,2013-10-04 08:38:00,
2013-10-04 03:43:00,47.8,46.7,28.08,East,82,0.0,0.0,96,0.00,,---,0.04,VWS V14.01,2013-10-04 08:43:00,
2013-10-04 03:48:00,47.8,46.7,28.08,East,82,0.0,0.0,96,0.00,,---,0.04,VWS V14.01,2013-10-04 08:48:00,
2013-10-04 03:53:00,47.8,46.7,28.08,East,82,2.0,3.0,96,0.00,,---,0.04,VWS V14.01,2013-10-04 08:53:00,
2013-10-04 03:58:00,47.8,46.7,28.08,East,82,0.0,1.0,96,0.00,,---,0.04,VWS V14.01,2013-10-04 08:58:00,
2013-10-04 04:03:00,47.7,46.6,28.08,East,82,1.0,1.0,96,0.00,,---,0.04,VWS V14.01,2013-10-04 09:03:00,
2013-10-04 04:08:00,47.7,46.6,28.08,East,82,2.0,2.0,96,0.00,,---,0.04,VWS V14.01,2013-10-04 09:08:00,
2013-10-04 04:13:00,47.7,46.6,28.08,NE,40,0.0,0.0,96,0.00,,---,0.04,VWS V14.01,2013-10-04 09:13:00,
2013-10-04 04:18:00,47.7,46.6,28.07,NE,41,2.0,2.0,96,0.00,,---,0.04,VWS V14.01,2013-10-04 09:18:00,
2013-10-04 04:23:00,47.6,46.2,28.07,NE,43,0.0,1.0,95,0.00,,---,0.04,VWS V14.01,2013-10-04 09:23:00,
2013-10-04 04:28:00,47.7,46.3,28.07,NNE,32,1.0,2.0,95,0.00,,---,0.04,VWS V14.01,2013-10-04 09:28:00,
2013-10-04 04:33:00,47.6,46.2,28.07,NNE,28,0.0,2.0,95,0.00,,---,0.04,VWS V14.01,2013-10-04 09:33:00,
2013-10-04 04:39:00,47.6,46.2,28.07,ENE,65,1.0,3.0,95,0.00,,---,0.04,VWS V14.01,2013-10-04 09:39:00,
2013-10-04 04:44:00,47.7,46.3,28.07,ENE,67,2.0,2.0,95,0.00,,---,0.04,VWS V14.01,2013-10-04 09:44:00,
2013-10-04 04:49:00,47.7,46.3,28.08,ENE,69,0.0,1.0,95,0.00,,---,0.04,VWS V14.01,2013-10-04 09:49:00,
2013-10-04 04:54:00,47.7,46.3,28.08,ENE,69,0.0,1.0,95,0.00,,---,0.04,VWS V14.01,2013-10-04 09:54:00,
2013-10-04 04:59:00,47.6,46.2,28.08,ENE,69,0.0,0.0,95,0.00,,---,0.04,VWS V14.01,2013-10-04 09:59:00,
2013-10-04 05:05:00,47.6,46.2,28.09,ENE,69,0.0,0.0,95,0.00,,---,0.04,VWS V14.01,2013-10-04 10:05:00,
2013-10-04 05:10:00,47.5,46.1,28.09,ENE,68,2.0,2.0,95,0.00,,---,0.04,VWS V14.01,2013-10-04 10:10:00,
2013-10-04 05:15:00,47.4,46.0,28.09,ENE,69,1.0,1.0,95,0.00,,---,0.04,VWS V14.01,2013-10-04 10:15:00,
2013-10-04 05:20:00,47.4,46.0,28.09,ENE,66,0.0,0.0,95,0.00,,---,0.04,VWS V14.01,2013-10-04 10:20:00,
2013-10-04 05:26:00,47.3,45.9,28.09,ENE,61,2.0,3.0,95,0.00,,---,0.04,VWS V14.01,2013-10-04 10:26:00,
2013-10-04 05:31:00,47.2,45.8,28.09,ENE,61,0.0,0.0,95,0.00,,---,0.04,VWS V14.01,2013-10-04 10:31:00,
2013-10-04 05:36:00,47.1,45.7,28.10,ENE,65,0.0,0.0,95,0.00,,---,0.04,VWS V14.01,2013-10-04 10:36:00,
2013-10-04 05:41:00,47.0,45.7,28.10,ENE,65,1.0,2.0,95,0.00,,---,0.04,VWS V14.01,2013-10-04 10:41:00,
2013-10-04 05:46:00,47.0,45.7,28.10,East,87,3.0,6.0,95,0.00,,---,0.04,VWS V14.01,2013-10-04 10:46:00,
2013-10-04 05:52:00,46.9,45.5,28.10,East,87,1.0,1.0,95,0.00,,---,0.04,VWS V14.01,2013-10-04 10:52:00,
2013-10-04 05:57:00,46.9,45.5,28.10,East,86,1.0,1.0,95,0.00,,---,0.04,VWS V14.01,2013-10-04 10:57:00,
2013-10-04 06:02:00,46.9,45.5,28.11,ENE,78,1.0,4.0,95,0.00,,---,0.04,VWS V14.01,2013-10-04 11:02:00,
2013-10-04 06:07:00,47.0,45.7,28.11,East,88,0.0,2.0,95,0.00,,---,0.04,VWS V14.01,2013-10-04 11:07:00,
2013-10-04 06:12:00,46.9,45.3,28.11,East,84,0.0,0.0,94,0.00,,---,0.04,VWS V14.01,2013-10-04 11:12:00,
2013-10-04 06:17:00,46.9,45.3,28.11,NE,48,3.0,3.0,94,0.00,,---,0.04,VWS V14.01,2013-10-04 11:17:00,
2013-10-04 06:23:00,46.9,45.3,28.11,ENE,72,0.0,0.0,94,0.00,,---,0.04,VWS V14.01,2013-10-04 11:23:00,
2013-10-04 06:28:00,46.9,45.3,28.11,East,84,3.0,3.0,94,0.00,,---,0.04,VWS V14.01,2013-10-04 11:28:00,
2013-10-04 06:33:00,46.9,45.3,28.11,East,86,1.0,2.0,94,0.00,,---,0.04,VWS V14.01,2013-10-04 11:33:00,
2013-10-04 06:38:00,46.9,45.3,28.11,ENE,74,2.0,3.0,94,0.00,,---,0.04,VWS V14.01,2013-10-04 11:38:00,
2013-10-04 06:43:00,46.9,45.3,28.11,East,95,3.0,6.0,94,0.00,,---,0.04,VWS V14.01,2013-10-04 11:43:00,
2013-10-04 06:48:00,46.8,45.2,28.12,East,85,0.0,5.0,94,0.00,,---,0.04,VWS V14.01,2013-10-04 11:48:00,
2013-10-04 06:54:00,46.8,45.2,28.12,NE,36,1.0,2.0,94,0.00,,---,0.04,VWS V14.01,2013-10-04 11:54:00,
2013-10-04 06:59:00,46.8,45.2,28.12,ENE,69,0.0,0.0,94,0.00,,---,0.04,VWS V14.01,2013-10-04 11:59:00,
2013-10-04 07:04:00,46.8,45.2,28.12,ENE,71,0.0,3.0,94,0.00,,---,0.04,VWS V14.01,2013-10-04 12:04:00,
2013-10-04 07:09:00,46.8,45.2,28.12,ENE,71,2.0,2.0,94,0.00,,---,0.04,VWS V14.01,2013-10-04 12:09:00,
2013-10-04 07:15:00,46.9,45.0,28.12,ENE,71,0.0,0.0,93,0.00,,---,0.04,VWS V14.01,2013-10-04 12:15:00,
2013-10-04 07:20:00,46.9,45.0,28.13,ENE,71,0.0,1.0,93,0.00,,---,0.04,VWS V14.01,2013-10-04 12:20:00,
2013-10-04 07:25:00,46.8,44.9,28.13,ENE,76,1.0,2.0,93,0.00,,---,0.04,VWS V14.01,2013-10-04 12:25:00,
2013-10-04 07:30:00,46.8,44.6,28.13,ENE,65,0.0,0.0,92,0.00,,---,0.04,VWS V14.01,2013-10-04 12:30:00,
2013-10-04 07:35:00,46.8,44.6,28.14,ENE,65,0.0,1.0,92,0.00,,---,0.04,VWS V14.01,2013-10-04 12:35:00,
2013-10-04 07:40:00,46.8,44.6,28.14,ENE,65,0.0,3.0,92,0.00,,---,0.04,VWS V14.01,2013-10-04 12:40:00,
2013-10-04 07:45:00,46.7,44.5,28.14,ENE,64,0.0,1.0,92,0.00,,---,0.04,VWS V14.01,2013-10-04 12:45:00,
2013-10-04 07:50:00,46.7,44.5,28.14,ENE,64,0.0,1.0,92,0.00,,---,0.04,VWS V14.01,2013-10-04 12:50:00,
2013-10-04 07:56:00,46.7,44.5,28.14,ENE,64,0.0,0.0,92,0.00,,---,0.04,VWS V14.01,2013-10-04 12:56:00,
2013-10-04 08:01:00,46.6,44.4,28.14,NNE,30,3.0,3.0,92,0.00,,---,0.04,VWS V14.01,2013-10-04 13:01:00,
2013-10-04 08:06:00,46.6,44.1,28.14,NE,39,0.0,3.0,91,0.00,,---,0.04,VWS V14.01,2013-10-04 13:06:00,
2013-10-04 08:11:00,46.5,44.0,28.14,NE,40,0.0,1.0,91,0.00,,---,0.04,VWS V14.01,2013-10-04 13:11:00,
2013-10-04 08:16:00,46.5,44.0,28.14,NE,42,1.0,3.0,91,0.00,,---,0.04,VWS V14.01,2013-10-04 13:16:00,
2013-10-04 08:21:00,46.5,44.0,28.14,NE,42,1.0,1.0,91,0.00,,---,0.04,VWS V14.01,2013-10-04 13:21:00,
2013-10-04 08:26:00,46.6,44.1,28.14,NE,44,0.0,0.0,91,0.00,,---,0.04,VWS V14.01,2013-10-04 13:26:00,
2013-10-04 08:31:00,46.6,44.1,28.14,NE,46,3.0,3.0,91,0.00,,---,0.04,VWS V14.01,2013-10-04 13:31:00,
2013-10-04 08:36:00,46.7,44.2,28.14,ENE,67,1.0,3.0,91,0.00,,---,0.04,VWS V14.01,2013-10-04 13:36:00,
2013-10-04 08:41:00,46.8,44.3,28.14,ENE,59,1.0,4.0,91,0.00,,---,0.04,VWS V14.01,2013-10-04 13:41:00,
2013-10-04 08:46:00,46.8,44.3,28.14,ENE,67,0.0,1.0,91,0.00,,---,0.04,VWS V14.01,2013-10-04 13:46:00,
2013-10-04 08:51:00,46.8,44.3,28.14,East,79,1.0,3.0,91,0.00,,---,0.04,VWS V14.01,2013-10-04 13:51:00,
2013-10-04 08:57:00,47.0,44.5,28.14,ENE,78,1.0,1.0,91,0.00,,---,0.04,VWS V14.01,2013-10-04 13:57:00,
2013-10-04 09:02:00,47.0,44.5,28.14,NNE,30,0.0,1.0,91,0.00,,---,0.04,VWS V14.01,2013-10-04 14:02:00,
2013-10-04 09:07:00,47.0,44.5,28.14,NNE,22,1.0,1.0,91,0.00,,---,0.04,VWS V14.01,2013-10-04 14:07:00,
2013-10-04 09:12:00,47.1,44.6,28.14,NNE,29,1.0,3.0,91,0.00,,---,0.04,VWS V14.01,2013-10-04 14:12:00,
2013-10-04 09:17:00,47.2,44.7,28.14,NE,38,0.0,1.0,91,0.00,,---,0.04,VWS V14.01,2013-10-04 14:17:00,
2013-10-04 09:23:00,47.3,44.8,28.14,NE,41,0.0,1.0,91,0.00,,---,0.04,VWS V14.01,2013-10-04 14:23:00,
2013-10-04 09:28:00,47.4,44.6,28.14,East,86,0.0,1.0,90,0.00,,---,0.04,VWS V14.01,2013-10-04 14:28:00,
2013-10-04 09:33:00,47.4,44.6,28.15,East,88,0.0,0.0,90,0.00,,---,0.04,VWS V14.01,2013-10-04 14:33:00,
2013-10-04 09:38:00,47.5,44.7,28.15,ENE,74,1.0,4.0,90,0.00,,---,0.04,VWS V14.01,2013-10-04 14:38:00,
2013-10-04 09:43:00,47.6,44.8,28.15,East,82,2.0,3.0,90,0.00,,---,0.04,VWS V14.01,2013-10-04 14:43:00,
2013-10-04 09:48:00,47.6,44.8,28.15,East,82,1.0,3.0,90,0.00,,---,0.04,VWS V14.01,2013-10-04 14:48:00,
2013-10-04 09:53:00,47.8,45.0,28.15,East,82,0.0,0.0,90,0.00,,---,0.04,VWS V14.01,2013-10-04 14:53:00,
2013-10-04 09:58:00,47.9,44.8,28.15,East,93,0.0,2.0,89,0.00,,---,0.04,VWS V14.01,2013-10-04 14:58:00,
2013-10-04 10:03:00,48.0,45.2,28.15,ENE,77,3.0,8.0,90,0.00,,---,0.04,VWS V14.01,2013-10-04 15:03:00,
2013-10-04 10:08:00,48.1,45.0,28.15,SE,129,2.0,2.0,89,0.00,,---,0.04,VWS V14.01,2013-10-04 15:08:00,
2013-10-04 10:14:00,48.2,45.1,28.15,NE,53,3.0,5.0,89,0.00,,---,0.04,VWS V14.01,2013-10-04 15:14:00,
2013-10-04 10:17:00,48.3,44.9,28.15,NNE,14,0.0,6.0,88,0.00,,---,0.04,VWS V14.01,2013-10-04 15:17:00,
2013-10-04 10:22:00,48.3,44.9,28.15,NE,45,0.0,2.0,88,0.00,,---,0.04,VWS V14.01,2013-10-04 15:22:00,
2013-10-04 10:28:00,48.5,45.1,28.15,North,5,2.0,2.0,88,0.00,,---,0.04,VWS V14.01,2013-10-04 15:28:00,
2013-10-04 10:33:00,48.5,45.1,28.15,NNE,12,7.0,7.0,88,0.00,,---,0.04,VWS V14.01,2013-10-04 15:33:00,
2013-10-04 10:38:00,48.7,45.0,28.15,NE,54,0.0,3.0,87,0.00,,---,0.04,VWS V14.01,2013-10-04 15:38:00,
2013-10-04 10:43:00,48.7,45.0,28.15,NE,49,1.0,2.0,87,0.00,,---,0.04,VWS V14.01,2013-10-04 15:43:00,
2013-10-04 10:48:00,48.7,45.0,28.16,NNE,14,1.0,6.0,87,0.00,,---,0.04,VWS V14.01,2013-10-04 15:48:00,
2013-10-04 10:54:00,48.9,45.5,28.16,NNE,15,0.0,1.0,88,0.00,,---,0.04,VWS V14.01,2013-10-04 15:54:00,
2013-10-04 10:59:00,49.3,45.6,28.16,East,92,2.0,7.0,87,0.00,,---,0.04,VWS V14.01,2013-10-04 15:59:00,
2013-10-04 11:04:00,49.6,45.6,28.16,NE,42,3.0,4.0,86,0.00,,---,0.04,VWS V14.01,2013-10-04 16:04:00,
2013-10-04 11:09:00,49.6,45.6,28.16,NNE,13,4.0,4.0,86,0.00,,---,0.04,VWS V14.01,2013-10-04 16:09:00,
2013-10-04 11:14:00,49.8,45.5,28.16,NE,45,2.0,2.0,85,0.00,,---,0.04,VWS V14.01,2013-10-04 16:14:00,
2013-10-04 11:20:00,50.1,45.8,28.16,ENE,65,3.0,3.0,85,0.00,,---,0.04,VWS V14.01,2013-10-04 16:20:00,
2013-10-04 11:25:00,50.3,45.3,28.16,ENE,74,1.0,6.0,83,0.00,,---,0.04,VWS V14.01,2013-10-04 16:25:00,
2013-10-04 11:30:00,50.5,45.2,28.16,ENE,71,2.0,4.0,82,0.00,,---,0.04,VWS V14.01,2013-10-04 16:30:00,
2013-10-04 11:35:00,51.0,45.7,28.15,ENE,68,2.0,3.0,82,0.00,,---,0.04,VWS V14.01,2013-10-04 16:35:00,
2013-10-04 11:40:00,51.0,45.4,28.15,NE,35,2.0,2.0,81,0.00,,---,0.04,VWS V14.01,2013-10-04 16:40:00,
2013-10-04 11:46:00,51.2,45.6,28.15,NE,35,1.0,1.0,81,0.00,,---,0.04,VWS V14.01,2013-10-04 16:46:00,
2013-10-04 11:51:00,51.2,45.2,28.16,North,360,2.0,9.0,80,0.00,,---,0.04,VWS V14.01,2013-10-04 16:51:00,
2013-10-04 11:56:00,51.0,45.4,28.16,NNE,19,1.0,6.0,81,0.00,,---,0.04,VWS V14.01,2013-10-04 16:56:00,
2013-10-04 12:01:00,51.2,45.6,28.16,East,80,0.0,3.0,81,0.00,,---,0.04,VWS V14.01,2013-10-04 17:01:00,
2013-10-04 12:06:00,51.4,46.1,28.16,ENE,58,1.0,2.0,82,0.00,,---,0.04,VWS V14.01,2013-10-04 17:06:00,
2013-10-04 12:11:00,51.4,46.1,28.16,North,9,3.0,5.0,82,0.00,,---,0.04,VWS V14.01,2013-10-04 17:11:00,
2013-10-04 12:16:00,51.7,45.1,28.16,NE,49,5.0,5.0,78,0.00,,---,0.04,VWS V14.01,2013-10-04 17:16:00,
2013-10-04 12:21:00,51.7,44.4,28.15,NE,35,2.0,7.0,76,0.00,,---,0.04,VWS V14.01,2013-10-04 17:21:00,
2013-10-04 12:26:00,51.5,45.5,28.15,ENE,72,4.0,4.0,80,0.00,,---,0.04,VWS V14.01,2013-10-04 17:26:00,
2013-10-04 12:32:00,51.2,45.9,28.16,North,360,6.0,9.0,82,0.00,,---,0.04,VWS V14.01,2013-10-04 17:32:00,
2013-10-04 12:37:00,50.9,45.9,28.16,NNW,344,3.0,3.0,83,0.00,,---,0.04,VWS V14.01,2013-10-04 17:37:00,
2013-10-04 13:03:00,50.7,45.7,28.15,North,9,3.0,3.0,83,0.00,,---,0.04,VWS V14.01,2013-10-04 18:03:00,
2013-10-04 13:08:00,50.5,45.5,28.15,NNE,12,4.0,8.0,83,0.00,,---,0.04,VWS V14.01,2013-10-04 18:08:00,
2013-10-04 13:13:00,50.5,45.5,28.15,NE,48,2.0,2.0,83,0.00,,---,0.04,VWS V14.01,2013-10-04 18:13:00,
2013-10-04 13:18:00,50.7,45.7,28.16,North,5,2.0,4.0,83,0.00,,---,0.04,VWS V14.01,2013-10-04 18:18:00,
2013-10-04 13:23:00,50.8,45.5,28.16,NNW,348,2.0,8.0,82,0.00,,---,0.04,VWS V14.01,2013-10-04 18:23:00,
2013-10-04 13:28:00,50.8,45.8,28.16,North,9,1.0,1.0,83,0.00,,---,0.04,VWS V14.01,2013-10-04 18:28:00,
2013-10-04 13:34:00,50.9,45.6,28.16,NNE,14,10.0,10.0,82,0.00,,---,0.04,VWS V14.01,2013-10-04 18:34:00,
2013-10-04 13:39:00,50.7,45.1,28.16,North,5,1.0,5.0,81,0.00,,---,0.04,VWS V14.01,2013-10-04 18:39:00,
2013-10-04 13:44:00,50.8,45.5,28.16,NE,38,0.0,5.0,82,0.00,,---,0.04,VWS V14.01,2013-10-04 18:44:00,
2013-10-04 13:49:00,51.1,45.5,28.16,NE,51,3.0,4.0,81,0.00,,---,0.04,VWS V14.01,2013-10-04 18:49:00,
2013-10-04 13:54:00,51.0,45.4,28.16,NNE,22,1.0,6.0,81,0.00,,---,0.04,VWS V14.01,2013-10-04 18:54:00,
2013-10-04 13:59:00,51.4,45.5,28.16,NE,47,1.0,4.0,80,0.00,,---,0.04,VWS V14.01,2013-10-04 18:59:00,
2013-10-04 14:05:00,51.8,45.5,28.15,NE,45,3.0,6.0,79,0.00,,---,0.04,VWS V14.01,2013-10-04 19:05:00,
2013-10-04 14:10:00,51.9,45.3,28.15,NNE,13,3.0,6.0,78,0.00,,---,0.04,VWS V14.01,2013-10-04 19:10:00,
2013-10-04 14:15:00,51.9,45.3,28.15,NNE,13,2.0,5.0,78,0.00,,---,0.04,VWS V14.01,2013-10-04 19:15:00,
2013-10-04 14:20:00,52.6,44.9,28.16,NE,36,6.0,9.0,75,0.00,,---,0.04,VWS V14.01,2013-10-04 19:20:00,
2013-10-04 14:25:00,52.7,45.4,28.16,North,5,5.0,6.0,76,0.00,,---,0.04,VWS V14.01,2013-10-04 19:25:00,
2013-10-04 14:30:00,52.3,45.0,28.16,NE,53,0.0,0.0,76,0.00,,---,0.04,VWS V14.01,2013-10-04 19:30:00,
2013-10-04 14:36:00,52.7,45.0,28.16,East,79,0.0,2.0,75,0.00,,---,0.04,VWS V14.01,2013-10-04 19:36:00,
2013-10-04 14:41:00,52.8,44.0,28.16,NNE,24,6.0,9.0,72,0.00,,---,0.04,VWS V14.01,2013-10-04 19:41:00,
2013-10-04 14:46:00,52.6,43.8,28.16,East,80,2.0,5.0,72,0.00,,---,0.04,VWS V14.01,2013-10-04 19:46:00,
2013-10-04 14:51:00,52.7,43.9,28.16,NE,40,3.0,5.0,72,0.00,,---,0.04,VWS V14.01,2013-10-04 19:51:00,
2013-10-04 14:56:00,52.8,44.0,28.16,ENE,74,4.0,9.0,72,0.00,,---,0.04,VWS V14.01,2013-10-04 19:56:00,
2013-10-04 15:01:00,52.2,42.7,28.16,NNE,32,4.0,9.0,70,0.00,,---,0.04,VWS V14.01,2013-10-04 20:01:00,
2013-10-04 15:06:00,51.8,42.7,28.15,ENE,72,4.0,11.0,71,0.00,,---,0.04,VWS V14.01,2013-10-04 20:06:00,
2013-10-04 15:11:00,52.0,43.3,28.15,NE,53,3.0,3.0,72,0.00,,---,0.04,VWS V14.01,2013-10-04 20:11:00,
2013-10-04 15:16:00,51.9,42.8,28.15,ENE,71,4.0,5.0,71,0.00,,---,0.04,VWS V14.01,2013-10-04 20:16:00,
2013-10-04 15:22:00,51.6,42.9,28.15,ENE,67,4.0,11.0,72,0.00,,---,0.04,VWS V14.01,2013-10-04 20:22:00,
2013-10-04 15:27:00,51.4,43.0,28.15,NW,320,0.0,5.0,73,0.00,,---,0.04,VWS V14.01,2013-10-04 20:27:00,
2013-10-04 15:32:00,51.6,43.6,28.14,NE,34,3.0,3.0,74,0.00,,---,0.04,VWS V14.01,2013-10-04 20:32:00,
2013-10-04 15:37:00,52.1,43.7,28.14,NE,34,2.0,2.0,73,0.00,,---,0.04,VWS V14.01,2013-10-04 20:37:00,
2013-10-04 15:42:00,51.9,43.2,28.14,NE,55,1.0,4.0,72,0.00,,---,0.04,VWS V14.01,2013-10-04 20:42:00,
2013-10-04 15:47:00,51.8,43.4,28.15,ENE,69,2.0,5.0,73,0.00,,---,0.04,VWS V14.01,2013-10-04 20:47:00,
2013-10-04 15:52:00,51.6,43.2,28.15,NNE,27,5.0,10.0,73,0.00,,---,0.04,VWS V14.01,2013-10-04 20:52:00,
2013-10-04 15:58:00,51.5,42.8,28.15,East,82,1.0,2.0,72,0.00,,---,0.04,VWS V14.01,2013-10-04 20:58:00,
2013-10-04 16:03:00,51.4,43.0,28.15,East,90,2.0,2.0,73,0.00,,---,0.04,VWS V14.01,2013-10-04 21:03:00,
2013-10-04 16:08:00,51.5,43.1,28.15,NE,34,2.0,2.0,73,0.00,,---,0.04,VWS V14.01,2013-10-04 21:08:00,
2013-10-04 16:13:00,51.4,43.0,28.15,NE,53,0.0,0.0,73,0.00,,---,0.04,VWS V14.01,2013-10-04 21:13:00,
2013-10-04 16:18:00,51.4,43.0,28.14,NE,42,0.0,0.0,73,0.00,,---,0.04,VWS V14.01,2013-10-04 21:18:00,
2013-10-04 16:23:00,51.4,43.4,28.14,ENE,61,0.0,1.0,74,0.00,,---,0.04,VWS V14.01,2013-10-04 21:23:00,
2013-10-04 16:29:00,51.3,43.3,28.14,NNE,17,2.0,3.0,74,0.00,,---,0.04,VWS V14.01,2013-10-04 21:29:00,
2013-10-04 16:34:00,51.4,43.4,28.15,NNE,31,3.0,3.0,74,0.00,,---,0.04,VWS V14.01,2013-10-04 21:34:00,
2013-10-04 16:39:00,51.3,43.0,28.15,North,355,3.0,4.0,73,0.00,,---,0.04,VWS V14.01,2013-10-04 21:39:00,
2013-10-04 16:44:00,51.3,43.3,28.15,ESE,103,2.0,3.0,74,0.00,,---,0.04,VWS V14.01,2013-10-04 21:44:00,
2013-10-04 16:49:00,51.2,43.2,28.15,NNE,12,4.0,4.0,74,0.00,,---,0.04,VWS V14.01,2013-10-04 21:49:00,
2013-10-04 16:54:00,51.3,43.7,28.15,ENE,73,1.0,3.0,75,0.00,,---,0.04,VWS V14.01,2013-10-04 21:54:00,
2013-10-04 17:00:00,51.3,43.3,28.15,ENE,65,2.0,3.0,74,0.00,,---,0.04,VWS V14.01,2013-10-04 22:00:00,
2013-10-04 17:05:00,51.2,43.2,28.14,North,5,2.0,3.0,74,0.00,,---,0.04,VWS V14.01,2013-10-04 22:05:00,
2013-10-04 17:10:00,51.3,43.3,28.14,ENE,63,4.0,4.0,74,0.00,,---,0.04,VWS V14.01,2013-10-04 22:10:00,
2013-10-04 17:15:00,51.3,41.9,28.14,NNE,22,3.0,6.0,70,0.00,,---,0.04,VWS V14.01,2013-10-04 22:15:00,
2013-10-04 17:21:00,51.4,41.6,28.14,East,90,0.0,1.0,69,0.00,,---,0.04,VWS V14.01,2013-10-04 22:21:00,
2013-10-04 17:26:00,51.5,40.9,28.14,East,92,7.0,8.0,67,0.00,,---,0.04,VWS V14.01,2013-10-04 22:26:00,
2013-10-04 17:31:00,51.5,41.3,28.14,ESE,115,2.0,4.0,68,0.00,,---,0.04,VWS V14.01,2013-10-04 22:31:00,
2013-10-04 17:36:00,51.4,42.0,28.14,ESE,107,0.0,5.0,70,0.00,,---,0.04,VWS V14.01,2013-10-04 22:36:00,
2013-10-04 17:41:00,51.2,42.1,28.14,ESE,112,0.0,0.0,71,0.00,,---,0.04,VWS V14.01,2013-10-04 22:41:00,
2013-10-04 17:46:00,51.1,42.0,28.14,ENE,59,2.0,5.0,71,0.00,,---,0.04,VWS V14.01,2013-10-04 22:46:00,
2013-10-04 17:52:00,50.9,42.2,28.14,NE,55,3.0,4.0,72,0.00,,---,0.04,VWS V14.01,2013-10-04 22:52:00,
2013-10-04 17:57:00,50.8,42.1,28.14,NE,55,1.0,2.0,72,0.00,,---,0.04,VWS V14.01,2013-10-04 22:57:00,
2013-10-04 18:02:00,50.7,41.7,28.14,ENE,76,0.0,3.0,71,0.00,,---,0.04,VWS V14.01,2013-10-04 23:02:00,
2013-10-04 18:07:00,50.6,41.2,28.14,ENE,69,3.0,7.0,70,0.00,,---,0.04,VWS V14.01,2013-10-04 23:07:00,
2013-10-04 18:12:00,50.6,41.2,28.14,ENE,57,4.0,7.0,70,0.00,,---,0.04,VWS V14.01,2013-10-04 23:12:00,
2013-10-04 18:18:00,50.5,41.1,28.14,ENE,76,3.0,4.0,70,0.00,,---,0.04,VWS V14.01,2013-10-04 23:18:00,
2013-10-04 18:23:00,50.3,40.9,28.14,ENE,74,1.0,3.0,70,0.00,,---,0.04,VWS V14.01,2013-10-04 23:23:00,
2013-10-04 18:28:00,50.1,41.1,28.14,ENE,74,0.0,2.0,71,0.00,,---,0.04,VWS V14.01,2013-10-04 23:28:00,
2013-10-04 18:33:00,49.9,41.2,28.15,East,80,0.0,2.0,72,0.00,,---,0.04,VWS V14.01,2013-10-04 23:33:00,
2013-10-04 18:38:00,49.6,41.0,28.15,ENE,78,0.0,1.0,72,0.00,,---,0.04,VWS V14.01,2013-10-04 23:38:00,
2013-10-04 18:43:00,49.3,41.0,28.15,ENE,78,0.0,0.0,73,0.00,,---,0.04,VWS V14.01,2013-10-04 23:43:00,
2013-10-04 18:48:00,49.1,41.2,28.15,ENE,78,1.0,1.0,74,0.00,,---,0.04,VWS V14.01,2013-10-04 23:48:00,
2013-10-04 18:54:00,48.8,41.2,28.15,ENE,78,0.0,0.0,75,0.00,,---,0.04,VWS V14.01,2013-10-04 23:54:00,
2013-10-04 18:59:00,48.7,41.1,28.15,ENE,78,0.0,0.0,75,0.00,,---,0.04,VWS V14.01,2013-10-04 23:59:00,
2013-10-04 19:04:00,48.4,41.2,28.16,ENE,78,0.0,0.0,76,0.00,,---,0.04,VWS V14.01,2013-10-05 00:04:00,
2013-10-04 19:09:00,48.0,41.5,28.16,ENE,78,0.0,0.0,78,0.00,,---,0.04,VWS V14.01,2013-10-05 00:09:00,
2013-10-04 19:15:00,47.7,41.5,28.16,ENE,78,0.0,0.0,79,0.00,,---,0.04,VWS V14.01,2013-10-05 00:15:00,
2013-10-04 19:20:00,47.6,41.4,28.16,ENE,78,0.0,0.0,79,0.00,,---,0.04,VWS V14.01,2013-10-05 00:20:00,
2013-10-04 19:25:00,47.6,41.8,28.16,ENE,78,0.0,0.0,80,0.00,,---,0.04,VWS V14.01,2013-10-05 00:25:00,
2013-10-04 19:30:00,47.7,41.8,28.16,ENE,78,0.0,0.0,80,0.00,,---,0.04,VWS V14.01,2013-10-05 00:30:00,
2013-10-04 19:35:00,47.8,41.9,28.16,ENE,78,0.0,0.0,80,0.00,,---,0.04,VWS V14.01,2013-10-05 00:35:00,
2013-10-04 19:40:00,47.9,42.4,28.16,ENE,70,0.0,2.0,81,0.00,,---,0.04,VWS V14.01,2013-10-05 00:40:00,
2013-10-04 19:45:00,47.9,42.4,28.16,ENE,70,0.0,0.0,81,0.00,,---,0.04,VWS V14.01,2013-10-05 00:45:00,
2013-10-04 19:50:00,48.0,42.5,28.16,ENE,70,0.0,1.0,81,0.00,,---,0.04,VWS V14.01,2013-10-05 00:50:00,
2013-10-04 19:56:00,48.1,42.5,28.16,ENE,70,0.0,0.0,81,0.00,,---,0.04,VWS V14.01,2013-10-05 00:56:00,
2013-10-04 20:01:00,48.1,42.9,28.16,ENE,70,0.0,0.0,82,0.00,,---,0.04,VWS V14.01,2013-10-05 01:01:00,
2013-10-04 20:06:00,48.1,42.9,28.15,ENE,70,0.0,1.0,82,0.00,,---,0.04,VWS V14.01,2013-10-05 01:06:00,
2013-10-04 20:11:00,48.2,44.2,28.15,East,85,1.0,2.0,86,0.00,,---,0.04,VWS V14.01,2013-10-05 01:11:00,
2013-10-04 20:16:00,48.5,43.6,28.15,East,79,0.0,0.0,83,0.00,,---,0.04,VWS V14.01,2013-10-05 01:16:00,
2013-10-04 20:22:00,48.6,43.4,28.15,NE,51,0.0,0.0,82,0.00,,---,0.04,VWS V14.01,2013-10-05 01:22:00,
2013-10-04 20:27:00,48.7,43.1,28.15,NNE,20,3.0,5.0,81,0.00,,---,0.04,VWS V14.01,2013-10-05 01:27:00,
2013-10-04 20:32:00,48.8,42.9,28.15,ENE,75,3.0,8.0,80,0.00,,---,0.04,VWS V14.01,2013-10-05 01:32:00,
2013-10-04 20:37:00,48.8,42.9,28.15,ENE,75,1.0,9.0,80,0.00,,---,0.04,VWS V14.01,2013-10-05 01:37:00,
2013-10-04 20:42:00,48.8,43.2,28.15,East,84,1.0,1.0,81,0.00,,---,0.04,VWS V14.01,2013-10-05 01:42:00,
2013-10-04 20:48:00,48.7,43.1,28.15,ENE,61,2.0,4.0,81,0.00,,---,0.04,VWS V14.01,2013-10-05 01:48:00,
2013-10-04 20:53:00,48.6,43.0,28.15,NNE,31,0.0,2.0,81,0.00,,---,0.04,VWS V14.01,2013-10-05 01:53:00,
2013-10-04 20:58:00,48.5,43.3,28.15,NE,39,2.0,3.0,82,0.00,,---,0.04,VWS V14.01,2013-10-05 01:58:00,
2013-10-04 21:03:00,48.4,42.8,28.15,NNE,22,4.0,4.0,81,0.00,,---,0.04,VWS V14.01,2013-10-05 02:03:00,
2013-10-04 21:08:00,48.4,43.2,28.15,ENE,78,4.0,4.0,82,0.00,,---,0.04,VWS V14.01,2013-10-05 02:08:00,
2013-10-04 21:13:00,48.3,43.1,28.15,NE,40,0.0,3.0,82,0.00,,---,0.04,VWS V14.01,2013-10-05 02:13:00,
2013-10-04 21:19:00,48.1,42.5,28.15,NNE,13,6.0,6.0,81,0.00,,---,0.04,VWS V14.01,2013-10-05 02:19:00,
2013-10-04 21:24:00,48.0,42.5,28.15,NNE,16,3.0,3.0,81,0.00,,---,0.04,VWS V14.01,2013-10-05 02:24:00,
2013-10-04 21:29:00,47.9,42.0,28.15,NNE,32,2.0,5.0,80,0.00,,---,0.04,VWS V14.01,2013-10-05 02:29:00,
2013-10-04 21:34:00,47.7,41.8,28.15,North,355,1.0,3.0,80,0.00,,---,0.04,VWS V14.01,2013-10-05 02:34:00,
2013-10-04 21:39:00,47.6,41.8,28.15,NE,51,6.0,6.0,80,0.00,,---,0.04,VWS V14.01,2013-10-05 02:39:00,
2013-10-04 21:44:00,47.5,41.3,28.15,NE,39,3.0,5.0,79,0.00,,---,0.04,VWS V14.01,2013-10-05 02:44:00,
2013-10-04 21:49:00,47.4,41.2,28.16,NE,44,1.0,3.0,79,0.00,,---,0.04,VWS V14.01,2013-10-05 02:49:00,
2013-10-04 21:55:00,47.3,41.1,28.16,NE,49,1.0,1.0,79,0.00,,---,0.04,VWS V14.01,2013-10-05 02:55:00,
2013-10-04 22:00:00,47.1,40.9,28.16,NNE,17,4.0,7.0,79,0.00,,---,0.04,VWS V14.01,2013-10-05 03:00:00,
2013-10-04 22:05:00,47.0,40.8,28.15,NNE,27,1.0,4.0,79,0.00,,---,0.04,VWS V14.01,2013-10-05 03:05:00,
2013-10-04 22:10:00,46.9,40.4,28.15,NNE,27,1.0,4.0,78,0.00,,---,0.04,VWS V14.01,2013-10-05 03:10:00,
2013-10-04 22:15:00,46.9,40.4,28.15,NE,47,6.0,6.0,78,0.00,,---,0.04,VWS V14.01,2013-10-05 03:15:00,
2013-10-04 22:20:00,46.8,40.3,28.16,ESE,106,2.0,7.0,78,0.00,,---,0.04,VWS V14.01,2013-10-05 03:20:00,
2013-10-04 22:25:00,46.8,40.6,28.16,ENE,57,1.0,4.0,79,0.00,,---,0.04,VWS V14.01,2013-10-05 03:25:00,
2013-10-04 22:30:00,46.6,40.5,28.16,NE,51,2.0,4.0,79,0.00,,---,0.04,VWS V14.01,2013-10-05 03:30:00,
2013-10-04 22:35:00,46.5,40.3,28.15,NE,55,6.0,10.0,79,0.00,,---,0.04,VWS V14.01,2013-10-05 03:35:00,
2013-10-04 22:40:00,46.4,40.2,28.15,NE,54,2.0,4.0,79,0.00,,---,0.04,VWS V14.01,2013-10-05 03:40:00,
2013-10-04 22:45:00,46.3,40.5,28.15,NE,51,0.0,2.0,80,0.00,,---,0.04,VWS V14.01,2013-10-05 03:45:00,
2013-10-04 22:50:00,46.1,40.0,28.15,East,82,1.0,9.0,79,0.00,,---,0.04,VWS V14.01,2013-10-05 03:50:00,
2013-10-04 22:55:00,46.0,39.9,28.15,East,90,3.0,7.0,79,0.00,,---,0.04,VWS V14.01,2013-10-05 03:55:00,
2013-10-04 23:00:00,45.9,39.8,28.15,NE,52,3.0,7.0,79,0.00,,---,0.04,VWS V14.01,2013-10-05 04:00:00,
2013-10-04 23:01:00,45.9,39.8,28.15,NE,42,2.0,5.0,79,0.00,,---,0.04,VWS V14.01,2013-10-05 04:01:00,
2013-10-04 23:02:00,45.9,39.8,28.15,NE,47,4.0,6.0,79,0.00,,---,0.04,VWS V14.01,2013-10-05 04:02:00,
2013-10-04 23:03:00,45.8,39.7,28.15,NE,46,3.0,5.0,79,0.00,,---,0.04,VWS V14.01,2013-10-05 04:03:00,
2013-10-04 23:05:00,45.8,39.7,28.15,NE,52,2.0,5.0,79,0.00,,---,0.04,VWS V14.01,2013-10-05 04:05:00,
2013-10-04 23:10:00,45.7,39.6,28.15,East,98,0.0,7.0,79,0.00,,---,0.04,VWS V14.01,2013-10-05 04:10:00,
2013-10-04 23:16:00,45.6,39.5,28.15,NNE,27,2.0,5.0,79,0.00,,---,0.04,VWS V14.01,2013-10-05 04:16:00,
2013-10-04 23:21:00,45.6,39.5,28.14,East,79,0.0,6.0,79,0.00,,---,0.04,VWS V14.01,2013-10-05 04:21:00,
2013-10-04 23:26:00,45.5,39.4,28.14,NNE,24,4.0,7.0,79,0.00,,---,0.04,VWS V14.01,2013-10-05 04:26:00,
2013-10-04 23:31:00,45.5,39.7,28.14,North,10,6.0,7.0,80,0.00,,---,0.04,VWS V14.01,2013-10-05 04:31:00,
2013-10-04 23:36:00,45.4,39.3,28.14,North,5,5.0,6.0,79,0.00,,---,0.04,VWS V14.01,2013-10-05 04:36:00,
2013-10-04 23:42:00,45.2,38.8,28.14,East,90,2.0,5.0,78,0.00,,---,0.04,VWS V14.01,2013-10-05 04:42:00,
2013-10-04 23:47:00,45.1,39.0,28.13,East,93,8.0,8.0,79,0.00,,---,0.04,VWS V14.01,2013-10-05 04:47:00,
2013-10-04 23:52:00,45.0,38.9,28.13,ENE,74,1.0,4.0,79,0.00,,---,0.04,VWS V14.01,2013-10-05 04:52:00,
2013-10-04 23:57:00,45.0,38.6,28.13,ENE,66,4.0,10.0,78,0.00,,---,0.04,VWS V14.01,2013-10-05 04:57:00,